Location: B�rgermoos
(47.6500°N, 9.0667°E)
Time: 09:36:07
(UTC+00:00)

A-11 Canister half - Pass Details

Date: 04 August 2021
Orbit: 1526 x 1683 km, 47.3° (Epoch: 20 September)

Event Time Altitude Azimuth Distance (km) Brightness Sun altitude
Rises 07:03:01 0° 167° (SSE) 4,909 11.9 28.2°
Reaches altitude 10° 07:09:18 10° 139° (SE) 3,939 12.0 29.2°
Maximum altitude 07:12:17 12° 121° (ESE) 3,809 12.3 29.7°
Drops below altitude 10° 07:15:16 10° 103° (ESE) 3,943 12.8 30.2°
Sets 07:21:31 0° 75° (ENE) 4,923 12.6 31.3°
